TimeEST,TemperatureF,Dew PointF,Humidity,Sea Level PressureIn,VisibilityMPH,Wind Direction,Wind SpeedMPH,Gust SpeedMPH,PrecipitationIn,Events,Conditions,WindDirDegrees,DateUTC
12:03 AM,73.4,66.2,78,29.98,10.0,South,3.5,-,N/A,,Mostly Cloudy,180,2012-12-17 05:03:00
12:53 AM,73.0,69.1,87,29.97,10.0,Calm,Calm,-,0.00,Rain,Light Rain,0,2012-12-17 05:53:00
1:53 AM,71.1,68.0,90,29.97,10.0,SW,3.5,-,0.00,,Mostly Cloudy,230,2012-12-17 06:53:00
2:53 AM,70.0,66.9,90,29.97,10.0,WSW,4.6,-,N/A,,Mostly Cloudy,240,2012-12-17 07:53:00
3:53 AM,69.1,66.0,90,29.95,10.0,WSW,3.5,-,N/A,,Scattered Clouds,250,2012-12-17 08:53:00
4:53 AM,68.0,66.0,93,29.95,10.0,WSW,3.5,-,N/A,,Scattered Clouds,250,2012-12-17 09:53:00
5:44 AM,66.2,64.4,94,29.96,9.0,Calm,Calm,-,N/A,,Scattered Clouds,0,2012-12-17 10:44:00
5:53 AM,66.0,64.9,96,29.96,9.0,Calm,Calm,-,N/A,,Scattered Clouds,0,2012-12-17 10:53:00
6:53 AM,66.0,64.9,96,29.96,7.0,Calm,Calm,-,N/A,Fog,Patches of Fog,0,2012-12-17 11:53:00
7:53 AM,64.9,64.0,97,29.97,7.0,WNW,3.5,-,N/A,,Mostly Cloudy,290,2012-12-17 12:53:00
8:53 AM,70.0,66.0,87,29.97,10.0,SSW,3.5,-,N/A,,Mostly Cloudy,200,2012-12-17 13:53:00
9:53 AM,75.9,66.0,71,29.98,10.0,SW,5.8,-,N/A,,Mostly Cloudy,220,2012-12-17 14:53:00
10:53 AM,77.0,66.0,69,29.97,10.0,SW,6.9,-,N/A,,Mostly Cloudy,230,2012-12-17 15:53:00
11:53 AM,81.0,64.9,58,29.94,10.0,SSW,11.5,-,N/A,,Mostly Cloudy,200,2012-12-17 16:53:00
12:53 PM,81.0,64.0,56,29.91,10.0,SW,12.7,-,N/A,,Mostly Cloudy,220,2012-12-17 17:53:00
1:53 PM,81.0,63.0,54,29.89,10.0,SW,13.8,-,N/A,,Mostly Cloudy,220,2012-12-17 18:53:00
2:53 PM,82.0,64.0,54,29.88,10.0,WSW,11.5,-,N/A,,Mostly Cloudy,240,2012-12-17 19:53:00
3:53 PM,81.0,64.0,56,29.89,10.0,WSW,11.5,-,N/A,,Mostly Cloudy,250,2012-12-17 20:53:00
4:53 PM,80.1,64.0,58,29.91,10.0,SW,8.1,-,N/A,,Mostly Cloudy,230,2012-12-17 21:53:00
7:53 PM,73.0,64.0,73,29.96,10.0,West,6.9,-,N/A,,Scattered Clouds,270,2012-12-18 00:53:00
8:53 PM,72.0,64.0,76,29.96,10.0,West,5.8,-,N/A,,Scattered Clouds,270,2012-12-18 01:53:00
9:53 PM,73.0,66.0,79,29.97,10.0,West,6.9,-,N/A,,Scattered Clouds,260,2012-12-18 02:53:00
10:53 PM,71.1,66.0,84,29.96,10.0,SSW,3.5,-,N/A,,Scattered Clouds,210,2012-12-18 03:53:00
11:53 PM,70.0,66.0,87,29.95,10.0,SW,3.5,-,N/A,,Partly Cloudy,220,2012-12-18 04:53:00